Hourly Data Report for June 19, 2021

CARIBOU POINT (AUT)
NOVA SCOTIA
Current Station Operator: ECCC - MSC

45°46'00.000" N
62°41'00.000" W
2.40 m
8200774
71415
WBK

Download Data

Hourly Data (June 2021)
Hourly Data Report for June 19, 2021
TIME
LST
Temp Definition
°C
Dew Point Definition
°C
Rel Hum Definition
%
Precip. Amount Definition
mm

Wind Dir Definition
10's deg

Wind Spd Definition
km/h
Visibility Definition
km
Stn Press Definition
kPa
Hmdx Definition


Wind Chill Definition


Weather Definition


00:00 15.0 10.5 74 0.0 21 7   101.12     LegendNANA
01:00 14.8 8.9 68 0.0 21 13   101.09     LegendNANA
02:00 14.3 9.0 70 0.0 22 9   101.09     LegendNANA
03:00 13.9 9.3 74 0.0 21 8   101.07     LegendNANA
04:00 12.8 9.0 78 0.0 20 12   101.10     LegendNANA
05:00 13.0 9.2 78 0.0 20 12   101.08     LegendNANA
06:00 14.4 9.8 74 0.0 20 10   101.09     LegendNANA
07:00 16.1 10.4 69 0.0 18 16   101.03     LegendNANA
08:00 17.3 10.2 63 0.0 17 15   101.00     LegendNANA
09:00 21.4 12.1 55 0.0 19 17   100.90     LegendNANA
10:00 23.3 11.0 46 0.0 20 14   100.83 25   LegendNANA
11:00 23.8 10.6 44 0.0 21 16   100.79 25   LegendNANA
12:00 23.8 12.2 48 0.0 20 21   100.76 26   LegendNANA
13:00 22.9 11.2 48 0.0 21 17   100.72 25   LegendNANA
14:00 23.8 13.0 51 0.0 22 21   100.68 27   LegendNANA
15:00 21.7 12.6 56 0.0 20 23   100.63     LegendNANA
16:00 19.8 11.6 59 0.0 19 25   100.64     LegendNANA
17:00 18.9 13.2 70 0.0 20 21   100.61     LegendNANA
18:00 18.1 13.6 75 0.0 19 20   100.54     LegendNANA
19:00 18.4 13.8 75 0.0 19 23   100.49     LegendNANA
20:00 17.2 15.4 89 1.1 20 13   100.54     LegendNANA
21:00 16.3 15.6 95 7.7 18 35   100.42     LegendNANA
22:00 16.6 15.8 95 0.3 19 18   100.37     LegendNANA
23:00 16.7 15.7 94 0.0 21 12   100.32     LegendNANA

Notes on Data Quality.

Legend

  • E = Estimated
  • M = Missing
  • NA = Not Available*
  • [empty] = Indicates an unobserved value
Date modified: